iso_date,epoch_date,Year,Hour,Min,DOY,POS_DOY,Lat,Lon,BP,Ts,Ta,has_bp,has_ts,has_ta,BuoyID,Buoy_Type,Buoy_Owner,Logistics,Hemisphere
2019-12-06T07:59:57Z,1575619197,2019,8,0,340.3333,340.3333,79.722,67.3402,1007.2,-19.2,-999.0,yes,yes,no,300234065762310,CALIB,AWI-USIABP,MOSAiC,North
2019-12-06T09:00:00Z,1575622800,2019,9,0,340.375,340.375,79.8446,68.0194,1007.8,-18.9,-999.0,yes,yes,no,300234065762310,CALIB,AWI-USIABP,MOSAiC,North
2019-12-06T10:00:02Z,1575626403,2019,10,0,340.4167,340.4167,79.993,68.5514,1008.2,-18.7,-999.0,yes,yes,no,300234065762310,CALIB,AWI-USIABP,MOSAiC,North
2019-12-06T10:59:57Z,1575629997,2019,11,0,340.4583,340.4583,80.1356,69.077,1008.6,-18.4,-999.0,yes,yes,no,300234065762310,CALIB,AWI-USIABP,MOSAiC,North
2019-12-06T12:00:00Z,1575633600,2019,12,0,340.5,340.5,80.2636,69.5722,1008.9,-18.1,-999.0,yes,yes,no,300234065762310,CALIB,AWI-USIABP,MOSAiC,North
2019-12-06T13:00:02Z,1575637203,2019,13,0,340.5417,340.5417,80.3868,70.05,1009.0,-17.9,-999.0,yes,yes,no,300234065762310,CALIB,AWI-USIABP,MOSAiC,North
2019-12-06T13:59:57Z,1575640797,2019,14,0,340.5833,340.5833,80.497,70.459,1008.7,-18.1,-999.0,yes,yes,no,300234065762310,CALIB,AWI-USIABP,MOSAiC,North
2019-12-06T15:00:00Z,1575644400,2019,15,0,340.625,340.625,80.5996,70.8642,1008.6,-18.3,-999.0,yes,yes,no,300234065762310,CALIB,AWI-USIABP,MOSAiC,North
2019-12-06T16:00:02Z,1575648003,2019,16,0,340.6667,340.6667,80.7324,71.4288,1008.6,-18.4,-999.0,yes,yes,no,300234065762310,CALIB,AWI-USIABP,MOSAiC,North
2019-12-06T16:59:57Z,1575651597,2019,17,0,340.7083,340.7083,80.8928,71.9302,1008.5,-17.9,-999.0,yes,yes,no,300234065762310,CALIB,AWI-USIABP,MOSAiC,North
2019-12-06T18:00:00Z,1575655200,2019,18,0,340.75,340.75,81.0282,72.3856,1007.8,-17.7,-999.0,yes,yes,no,300234065762310,CALIB,AWI-USIABP,MOSAiC,North
2019-12-06T19:00:02Z,1575658803,2019,19,0,340.7917,340.7917,81.1826,72.9416,1007.1,-17.3,-999.0,yes,yes,no,300234065762310,CALIB,AWI-USIABP,MOSAiC,North
2019-12-06T19:59:57Z,1575662397,2019,20,0,340.8333,340.8333,81.3164,73.6858,1006.1,-16.9,-999.0,yes,yes,no,300234065762310,CALIB,AWI-USIABP,MOSAiC,North
2019-12-06T21:00:00Z,1575666000,2019,21,0,340.875,340.875,81.375,74.7678,1005.0,-16.9,-999.0,yes,yes,no,300234065762310,CALIB,AWI-USIABP,MOSAiC,North
2019-12-06T22:00:02Z,1575669603,2019,22,0,340.9167,340.9167,81.4052,75.892,1004.7,-16.8,-999.0,yes,yes,no,300234065762310,CALIB,AWI-USIABP,MOSAiC,North
2019-12-06T22:59:57Z,1575673197,2019,23,0,340.9583,340.9583,81.4294,76.9088,1003.0,-16.8,-999.0,yes,yes,no,300234065762310,CALIB,AWI-USIABP,MOSAiC,North
2019-12-07T00:00:00Z,1575676800,2019,0,0,341.0,341.0,81.4478,77.721,1001.7,-16.9,-999.0,yes,yes,no,300234065762310,CALIB,AWI-USIABP,MOSAiC,North
2019-12-07T01:00:02Z,1575680403,2019,1,0,341.0417,341.0417,81.4608,78.4876,1001.3,-16.7,-999.0,yes,yes,no,300234065762310,CALIB,AWI-USIABP,MOSAiC,North
2019-12-07T01:59:57Z,1575683997,2019,2,0,341.0833,341.0833,81.5378,78.852,1000.3,-16.6,-999.0,yes,yes,no,300234065762310,CALIB,AWI-USIABP,MOSAiC,North
2019-12-07T03:00:00Z,1575687600,2019,3,0,341.125,341.125,81.5312,79.912,999.0,-16.0,-999.0,yes,yes,no,300234065762310,CALIB,AWI-USIABP,MOSAiC,North
2019-12-07T04:00:02Z,1575691203,2019,4,0,341.1667,341.1667,81.5254,80.7046,998.2,-15.2,-999.0,yes,yes,no,300234065762310,CALIB,AWI-USIABP,MOSAiC,North
2019-12-07T04:59:57Z,1575694797,2019,5,0,341.2083,341.2083,81.531,81.6794,996.6,-15.3,-999.0,yes,yes,no,300234065762310,CALIB,AWI-USIABP,MOSAiC,North
2019-12-07T06:00:00Z,1575698400,2019,6,0,341.25,341.25,81.536,82.3462,996.0,-15.7,-999.0,yes,yes,no,300234065762310,CALIB,AWI-USIABP,MOSAiC,North
2019-12-07T07:00:02Z,1575702003,2019,7,0,341.2917,341.2917,81.5392,82.9122,995.2,-15.6,-999.0,yes,yes,no,300234065762310,CALIB,AWI-USIABP,MOSAiC,North
2019-12-07T07:59:57Z,1575705597,2019,8,0,341.3333,341.3333,81.5314,83.8832,994.6,-15.3,-999.0,yes,yes,no,300234065762310,CALIB,AWI-USIABP,MOSAiC,North
2019-12-07T09:00:00Z,1575709200,2019,9,0,341.375,341.375,81.5192,84.793,993.6,-14.9,-999.0,yes,yes,no,300234065762310,CALIB,AWI-USIABP,MOSAiC,North
2019-12-07T10:00:02Z,1575712803,2019,10,0,341.4167,341.4167,81.5204,85.5038,992.9,-14.3,-999.0,yes,yes,no,300234065762310,CALIB,AWI-USIABP,MOSAiC,North
2019-12-07T10:59:57Z,1575716397,2019,11,0,341.4583,341.4583,81.5248,86.162,991.6,-14.1,-999.0,yes,yes,no,300234065762310,CALIB,AWI-USIABP,MOSAiC,North
2019-12-07T12:00:00Z,1575720000,2019,12,0,341.5,341.5,81.5314,86.8284,990.9,-14.2,-999.0,yes,yes,no,300234065762310,CALIB,AWI-USIABP,MOSAiC,North
2019-12-07T13:00:02Z,1575723603,2019,13,0,341.5417,341.5417,81.5312,88.0582,989.7,-14.3,-999.0,yes,yes,no,300234065762310,CALIB,AWI-USIABP,MOSAiC,North
2019-12-07T13:59:57Z,1575727197,2019,14,0,341.5833,341.5833,81.5498,89.1946,989.5,-14.3,-999.0,yes,yes,no,300234065762310,CALIB,AWI-USIABP,MOSAiC,North
2019-12-07T15:00:00Z,1575730800,2019,15,0,341.625,341.625,81.5694,89.8432,989.7,-14.5,-999.0,yes,yes,no,300234065762310,CALIB,AWI-USIABP,MOSAiC,North
2019-12-07T16:00:02Z,1575734403,2019,16,0,341.6667,341.6667,81.574,89.8014,989.2,-14.5,-999.0,yes,yes,no,300234065762310,CALIB,AWI-USIABP,MOSAiC,North
2019-12-07T16:59:57Z,1575737997,2019,17,0,341.7083,341.7083,81.606,90.448,989.3,-14.5,-999.0,yes,yes,no,300234065762310,CALIB,AWI-USIABP,MOSAiC,North
2019-12-07T18:00:00Z,1575741600,2019,18,0,341.75,341.75,81.6174,90.5996,989.4,-14.5,-999.0,yes,yes,no,300234065762310,CALIB,AWI-USIABP,MOSAiC,North
2019-12-07T19:00:02Z,1575745203,2019,19,0,341.7917,341.7917,81.5576,91.5592,988.8,-13.9,-999.0,yes,yes,no,300234065762310,CALIB,AWI-USIABP,MOSAiC,North
2019-12-07T19:59:57Z,1575748797,2019,20,0,341.8333,341.8333,81.5538,93.0612,988.6,-13.8,-999.0,yes,yes,no,300234065762310,CALIB,AWI-USIABP,MOSAiC,North
2019-12-07T21:00:00Z,1575752400,2019,21,0,341.875,341.875,81.5602,94.3364,989.4,-14.4,-999.0,yes,yes,no,300234065762310,CALIB,AWI-USIABP,MOSAiC,North
2019-12-07T22:00:02Z,1575756003,2019,22,0,341.9167,341.9167,81.5652,95.339,990.2,-15.1,-999.0,yes,yes,no,300234065762310,CALIB,AWI-USIABP,MOSAiC,North
2019-12-07T22:59:57Z,1575759597,2019,23,0,341.9583,341.9583,81.5768,96.4646,990.6,-15.5,-999.0,yes,yes,no,300234065762310,CALIB,AWI-USIABP,MOSAiC,North
2019-12-08T00:00:00Z,1575763200,2019,0,0,342.0,342.0,81.5988,97.095,991.7,-15.9,-999.0,yes,yes,no,300234065762310,CALIB,AWI-USIABP,MOSAiC,North
2019-12-08T01:00:02Z,1575766803,2019,1,0,342.0417,342.0417,81.6542,97.6554,991.6,-16.2,-999.0,yes,yes,no,300234065762310,CALIB,AWI-USIABP,MOSAiC,North
2019-12-08T01:59:57Z,1575770397,2019,2,0,342.0833,342.0833,81.7106,98.4844,993.0,-16.5,-999.0,yes,yes,no,300234065762310,CALIB,AWI-USIABP,MOSAiC,North
2019-12-08T03:00:00Z,1575774000,2019,3,0,342.125,342.125,81.7666,99.3114,993.6,-16.5,-999.0,yes,yes,no,300234065762310,CALIB,AWI-USIABP,MOSAiC,North
2019-12-08T04:00:02Z,1575777603,2019,4,0,342.1667,342.1667,81.8034,100.0686,993.9,-16.7,-999.0,yes,yes,no,300234065762310,CALIB,AWI-USIABP,MOSAiC,North
2019-12-08T04:59:57Z,1575781197,2019,5,0,342.2083,342.2083,81.8526,100.7176,994.5,-17.4,-999.0,yes,yes,no,300234065762310,CALIB,AWI-USIABP,MOSAiC,North
2019-12-08T06:00:00Z,1575784800,2019,6,0,342.25,342.25,81.8954,101.4514,994.9,-17.7,-999.0,yes,yes,no,300234065762310,CALIB,AWI-USIABP,MOSAiC,North
2019-12-08T07:00:02Z,1575788403,2019,7,0,342.2917,342.2917,81.9858,101.7566,995.8,-17.4,-999.0,yes,yes,no,300234065762310,CALIB,AWI-USIABP,MOSAiC,North
2019-12-08T07:59:57Z,1575791997,2019,8,0,342.3333,342.3333,82.063,101.5948,996.5,-17.5,-999.0,yes,yes,no,300234065762310,CALIB,AWI-USIABP,MOSAiC,North
2019-12-08T09:00:00Z,1575795600,2019,9,0,342.375,342.375,82.1498,102.0656,996.7,-17.8,-999.0,yes,yes,no,300234065762310,CALIB,AWI-USIABP,MOSAiC,North
2019-12-08T10:00:02Z,1575799203,2019,10,0,342.4167,342.4167,82.2456,102.3094,997.4,-17.6,-999.0,yes,yes,no,300234065762310,CALIB,AWI-USIABP,MOSAiC,North
2019-12-08T10:59:57Z,1575802797,2019,11,0,342.4583,342.4583,82.3118,102.495,997.9,-17.4,-999.0,yes,yes,no,300234065762310,CALIB,AWI-USIABP,MOSAiC,North
2019-12-08T12:00:00Z,1575806400,2019,12,0,342.5,342.5,82.376,102.7806,999.0,-17.4,-999.0,yes,yes,no,300234065762310,CALIB,AWI-USIABP,MOSAiC,North
2019-12-08T13:00:02Z,1575810003,2019,13,0,342.5417,342.5417,82.407,102.9612,999.4,-17.4,-999.0,yes,yes,no,300234065762310,CALIB,AWI-USIABP,MOSAiC,North
2019-12-08T13:59:57Z,1575813597,2019,14,0,342.5833,342.5833,82.4694,103.3992,1000.0,-17.5,-999.0,yes,yes,no,300234065762310,CALIB,AWI-USIABP,MOSAiC,North
2019-12-08T15:00:00Z,1575817200,2019,15,0,342.625,342.625,82.512,103.655,1001.0,-17.6,-999.0,yes,yes,no,300234065762310,CALIB,AWI-USIABP,MOSAiC,North
2019-12-08T16:00:02Z,1575820803,2019,16,0,342.6667,342.6667,82.55,103.7016,1001.5,-17.2,-999.0,yes,yes,no,300234065762310,CALIB,AWI-USIABP,MOSAiC,North
2019-12-08T16:59:57Z,1575824397,2019,17,0,342.7083,342.7083,82.6096,104.0458,1001.9,-17.5,-999.0,yes,yes,no,300234065762310,CALIB,AWI-USIABP,MOSAiC,North
2019-12-08T18:00:00Z,1575828000,2019,18,0,342.75,342.75,82.6622,104.331,1002.6,-17.9,-999.0,yes,yes,no,300234065762310,CALIB,AWI-USIABP,MOSAiC,North
2019-12-08T19:00:02Z,1575831603,2019,19,0,342.7917,342.7917,82.7742,104.2356,1003.3,-18.1,-999.0,yes,yes,no,300234065762310,CALIB,AWI-USIABP,MOSAiC,North
2019-12-08T19:59:57Z,1575835197,2019,20,0,342.8333,342.8333,82.8072,103.9368,1003.7,-19.2,-999.0,yes,yes,no,300234065762310,CALIB,AWI-USIABP,MOSAiC,North
2019-12-08T21:00:00Z,1575838800,2019,21,0,342.875,342.875,82.917,103.8134,1004.2,-19.1,-999.0,yes,yes,no,300234065762310,CALIB,AWI-USIABP,MOSAiC,North
2019-12-08T22:00:02Z,1575842403,2019,22,0,342.9167,342.9167,83.0024,103.8568,1004.4,-19.3,-999.0,yes,yes,no,300234065762310,CALIB,AWI-USIABP,MOSAiC,North
2019-12-08T22:59:57Z,1575845997,2019,23,0,342.9583,342.9583,83.0882,104.031,1005.0,-19.5,-999.0,yes,yes,no,300234065762310,CALIB,AWI-USIABP,MOSAiC,North
2019-12-09T00:00:00Z,1575849600,2019,0,0,343.0,343.0,83.2018,104.2474,1005.2,-19.8,-999.0,yes,yes,no,300234065762310,CALIB,AWI-USIABP,MOSAiC,North
2019-12-09T01:00:02Z,1575853203,2019,1,0,343.0417,343.0417,83.289,104.4596,1005.8,-20.1,-999.0,yes,yes,no,300234065762310,CALIB,AWI-USIABP,MOSAiC,North
2019-12-09T01:59:57Z,1575856797,2019,2,0,343.0833,343.0833,83.3764,104.8932,1006.1,-20.6,-999.0,yes,yes,no,300234065762310,CALIB,AWI-USIABP,MOSAiC,North
2019-12-09T03:00:00Z,1575860400,2019,3,0,343.125,343.125,83.4848,105.549,1006.5,-21.0,-999.0,yes,yes,no,300234065762310,CALIB,AWI-USIABP,MOSAiC,North
2019-12-09T04:00:02Z,1575864003,2019,4,0,343.1667,343.1667,83.561,106.1144,1007.2,-21.2,-999.0,yes,yes,no,300234065762310,CALIB,AWI-USIABP,MOSAiC,North
2019-12-09T04:59:57Z,1575867597,2019,5,0,343.2083,343.2083,83.614,106.3804,1008.1,-21.0,-999.0,yes,yes,no,300234065762310,CALIB,AWI-USIABP,MOSAiC,North
2019-12-09T06:00:00Z,1575871200,2019,6,0,343.25,343.25,83.6582,106.8614,1008.2,-21.1,-999.0,yes,yes,no,300234065762310,CALIB,AWI-USIABP,MOSAiC,North
2019-12-09T07:00:02Z,1575874803,2019,7,0,343.2917,343.2917,83.6942,107.0084,1009.0,-20.9,-999.0,yes,yes,no,300234065762310,CALIB,AWI-USIABP,MOSAiC,North
2019-12-09T07:59:57Z,1575878397,2019,8,0,343.3333,343.3333,83.7628,106.894,1009.6,-21.1,-999.0,yes,yes,no,300234065762310,CALIB,AWI-USIABP,MOSAiC,North
2019-12-09T09:00:00Z,1575882000,2019,9,0,343.375,343.375,83.8058,106.6852,1009.9,-21.6,-999.0,yes,yes,no,300234065762310,CALIB,AWI-USIABP,MOSAiC,North
2019-12-09T10:00:02Z,1575885603,2019,10,0,343.4167,343.4167,83.8476,106.5414,1010.5,-21.5,-999.0,yes,yes,no,300234065762310,CALIB,AWI-USIABP,MOSAiC,North
2019-12-09T10:59:57Z,1575889197,2019,11,0,343.4583,343.4583,83.8892,106.6428,1011.0,-21.4,-999.0,yes,yes,no,300234065762310,CALIB,AWI-USIABP,MOSAiC,North
2019-12-09T12:00:00Z,1575892800,2019,12,0,343.5,343.5,83.9618,106.9092,1011.4,-21.4,-999.0,yes,yes,no,300234065762310,CALIB,AWI-USIABP,MOSAiC,North
2019-12-09T13:00:02Z,1575896403,2019,13,0,343.5417,343.5417,84.02,106.9732,1011.6,-21.5,-999.0,yes,yes,no,300234065762310,CALIB,AWI-USIABP,MOSAiC,North
2019-12-09T13:59:57Z,1575899997,2019,14,0,343.5833,343.5833,84.0816,107.3576,1011.9,-21.7,-999.0,yes,yes,no,300234065762310,CALIB,AWI-USIABP,MOSAiC,North
2019-12-09T15:00:00Z,1575903600,2019,15,0,343.625,343.625,84.1202,107.6718,1012.5,-21.4,-999.0,yes,yes,no,300234065762310,CALIB,AWI-USIABP,MOSAiC,North
2019-12-09T16:00:02Z,1575907203,2019,16,0,343.6667,343.6667,84.1656,107.9246,1012.9,-21.3,-999.0,yes,yes,no,300234065762310,CALIB,AWI-USIABP,MOSAiC,North
2019-12-09T16:59:57Z,1575910797,2019,17,0,343.7083,343.7083,84.2106,108.2436,1013.0,-21.3,-999.0,yes,yes,no,300234065762310,CALIB,AWI-USIABP,MOSAiC,North
2019-12-09T18:00:00Z,1575914400,2019,18,0,343.75,343.75,84.2292,108.4632,1013.8,-21.0,-999.0,yes,yes,no,300234065762310,CALIB,AWI-USIABP,MOSAiC,North
2019-12-09T19:00:02Z,1575918003,2019,19,0,343.7917,343.7917,84.235,108.631,1014.0,-21.1,-999.0,yes,yes,no,300234065762310,CALIB,AWI-USIABP,MOSAiC,North
2019-12-09T19:59:57Z,1575921597,2019,20,0,343.8333,343.8333,84.2774,108.9256,1014.5,-20.8,-999.0,yes,yes,no,300234065762310,CALIB,AWI-USIABP,MOSAiC,North
2019-12-09T21:00:00Z,1575925200,2019,21,0,343.875,343.875,84.3194,109.2898,1015.2,-20.7,-999.0,yes,yes,no,300234065762310,CALIB,AWI-USIABP,MOSAiC,North
2019-12-09T22:00:02Z,1575928803,2019,22,0,343.9167,343.9167,84.3508,109.6906,1015.7,-20.7,-999.0,yes,yes,no,300234065762310,CALIB,AWI-USIABP,MOSAiC,North
2019-12-09T22:59:57Z,1575932397,2019,23,0,343.9583,343.9583,84.405,109.9504,1015.8,-20.3,-999.0,yes,yes,no,300234065762310,CALIB,AWI-USIABP,MOSAiC,North
2019-12-10T00:00:00Z,1575936000,2019,0,0,344.0,344.0,84.4592,110.393,1016.3,-20.0,-999.0,yes,yes,no,300234065762310,CALIB,AWI-USIABP,MOSAiC,North
2019-12-10T01:00:02Z,1575939603,2019,1,0,344.0417,344.0417,84.5128,110.9312,1016.7,-20.0,-999.0,yes,yes,no,300234065762310,CALIB,AWI-USIABP,MOSAiC,North
2019-12-10T01:59:57Z,1575943197,2019,2,0,344.0833,344.0833,84.5578,111.431,1017.5,-19.7,-999.0,yes,yes,no,300234065762310,CALIB,AWI-USIABP,MOSAiC,North
2019-12-10T03:00:00Z,1575946800,2019,3,0,344.125,344.125,84.5934,111.5784,1017.8,-19.3,-999.0,yes,yes,no,300234065762310,CALIB,AWI-USIABP,MOSAiC,North
2019-12-10T04:00:02Z,1575950403,2019,4,0,344.1667,344.1667,84.6698,112.2536,1018.4,-18.5,-999.0,yes,yes,no,300234065762310,CALIB,AWI-USIABP,MOSAiC,North
2019-12-10T04:59:57Z,1575953997,2019,5,0,344.2083,344.2083,84.7274,112.6352,1018.2,-18.6,-999.0,yes,yes,no,300234065762310,CALIB,AWI-USIABP,MOSAiC,North
2019-12-10T06:00:00Z,1575957600,2019,6,0,344.25,344.25,84.7798,113.0386,1019.1,-18.7,-999.0,yes,yes,no,300234065762310,CALIB,AWI-USIABP,MOSAiC,North
2019-12-10T07:00:02Z,1575961203,2019,7,0,344.2917,344.2917,84.8092,113.3516,1019.8,-18.7,-999.0,yes,yes,no,300234065762310,CALIB,AWI-USIABP,MOSAiC,North
2019-12-10T07:59:57Z,1575964797,2019,8,0,344.3333,344.3333,84.8352,113.6462,1020.4,-18.9,-999.0,yes,yes,no,300234065762310,CALIB,AWI-USIABP,MOSAiC,North
2019-12-10T09:00:00Z,1575968400,2019,9,0,344.375,344.375,84.8688,114.109,1020.8,-19.2,-999.0,yes,yes,no,300234065762310,CALIB,AWI-USIABP,MOSAiC,North
2019-12-10T10:00:02Z,1575972003,2019,10,0,344.4167,344.4167,84.9026,114.6454,1021.5,-19.6,-999.0,yes,yes,no,300234065762310,CALIB,AWI-USIABP,MOSAiC,North
2019-12-10T10:59:57Z,1575975597,2019,11,0,344.4583,344.4583,84.9276,114.9314,1021.8,-19.8,-999.0,yes,yes,no,300234065762310,CALIB,AWI-USIABP,MOSAiC,North
2019-12-10T12:00:00Z,1575979200,2019,12,0,344.5,344.5,84.9364,114.9548,1021.4,-20.3,-999.0,yes,yes,no,300234065762310,CALIB,AWI-USIABP,MOSAiC,North
2019-12-10T13:00:02Z,1575982803,2019,13,0,344.5417,344.5417,84.9448,114.9778,1021.3,-20.6,-999.0,yes,yes,no,300234065762310,CALIB,AWI-USIABP,MOSAiC,North
2019-12-10T13:59:57Z,1575986397,2019,14,0,344.5833,344.5833,84.981,115.1154,1020.9,-20.9,-999.0,yes,yes,no,300234065762310,CALIB,AWI-USIABP,MOSAiC,North
2019-12-10T15:00:00Z,1575990000,2019,15,0,344.625,344.625,85.016,115.313,1021.0,-21.0,-999.0,yes,yes,no,300234065762310,CALIB,AWI-USIABP,MOSAiC,North
2019-12-10T16:00:02Z,1575993603,2019,16,0,344.6667,344.6667,85.0756,115.6322,1020.9,-21.3,-999.0,yes,yes,no,300234065762310,CALIB,AWI-USIABP,MOSAiC,North
2019-12-10T16:59:57Z,1575997197,2019,17,0,344.7083,344.7083,85.114,115.8268,1021.1,-21.2,-999.0,yes,yes,no,300234065762310,CALIB,AWI-USIABP,MOSAiC,North
2019-12-10T18:00:00Z,1576000800,2019,18,0,344.75,344.75,85.145,116.004,1021.2,-21.4,-999.0,yes,yes,no,300234065762310,CALIB,AWI-USIABP,MOSAiC,North
2019-12-10T19:00:02Z,1576004403,2019,19,0,344.7917,344.7917,85.2052,116.3594,1021.1,-21.1,-999.0,yes,yes,no,300234065762310,CALIB,AWI-USIABP,MOSAiC,North
2019-12-10T19:59:57Z,1576007997,2019,20,0,344.8333,344.8333,85.2298,116.6884,1020.8,-21.5,-999.0,yes,yes,no,300234065762310,CALIB,AWI-USIABP,MOSAiC,North
2019-12-10T21:00:00Z,1576011600,2019,21,0,344.875,344.875,85.27,116.9856,1021.4,-21.4,-999.0,yes,yes,no,300234065762310,CALIB,AWI-USIABP,MOSAiC,North
2019-12-10T22:00:02Z,1576015203,2019,22,0,344.9167,344.9167,85.3158,117.3522,1021.5,-21.3,-999.0,yes,yes,no,300234065762310,CALIB,AWI-USIABP,MOSAiC,North
2019-12-10T22:59:57Z,1576018797,2019,23,0,344.9583,344.9583,85.3598,117.7858,1021.4,-21.4,-999.0,yes,yes,no,300234065762310,CALIB,AWI-USIABP,MOSAiC,North
2019-12-11T00:00:00Z,1576022400,2019,0,0,345.0,345.0,85.4036,118.1572,1021.8,-21.4,-999.0,yes,yes,no,300234065762310,CALIB,AWI-USIABP,MOSAiC,North
2019-12-11T01:00:02Z,1576026003,2019,1,0,345.0417,345.0417,85.452,118.5378,1021.4,-21.5,-999.0,yes,yes,no,300234065762310,CALIB,AWI-USIABP,MOSAiC,North
2019-12-11T01:59:57Z,1576029597,2019,2,0,345.0833,345.0833,85.4936,118.8384,1021.5,-21.7,-999.0,yes,yes,no,300234065762310,CALIB,AWI-USIABP,MOSAiC,North
2019-12-11T03:00:00Z,1576033200,2019,3,0,345.125,345.125,85.5354,119.2086,1021.2,-21.6,-999.0,yes,yes,no,300234065762310,CALIB,AWI-USIABP,MOSAiC,North
2019-12-11T04:00:02Z,1576036803,2019,4,0,345.1667,345.1667,85.5584,119.281,1021.4,-21.6,-999.0,yes,yes,no,300234065762310,CALIB,AWI-USIABP,MOSAiC,North
2019-12-11T04:59:57Z,1576040397,2019,5,0,345.2083,345.2083,85.6094,119.4746,1021.4,-21.9,-999.0,yes,yes,no,300234065762310,CALIB,AWI-USIABP,MOSAiC,North
2019-12-11T06:00:00Z,1576044000,2019,6,0,345.25,345.25,85.659,119.8298,1021.1,-22.3,-999.0,yes,yes,no,300234065762310,CALIB,AWI-USIABP,MOSAiC,North
2019-12-11T07:00:02Z,1576047603,2019,7,0,345.2917,345.2917,85.6964,120.6208,1021.4,-23.0,-999.0,yes,yes,no,300234065762310,CALIB,AWI-USIABP,MOSAiC,North
2019-12-11T07:59:57Z,1576051197,2019,8,0,345.3333,345.3333,85.7318,121.423,1021.5,-23.0,-999.0,yes,yes,no,300234065762310,CALIB,AWI-USIABP,MOSAiC,North
2019-12-11T09:00:00Z,1576054800,2019,9,0,345.375,345.375,85.7524,121.747,1022.2,-23.6,-999.0,yes,yes,no,300234065762310,CALIB,AWI-USIABP,MOSAiC,North
2019-12-11T10:00:02Z,1576058403,2019,10,0,345.4167,345.4167,85.7586,121.8242,1022.3,-23.3,-999.0,yes,yes,no,300234065762310,CALIB,AWI-USIABP,MOSAiC,North
2019-12-11T10:59:57Z,1576061997,2019,11,0,345.4583,345.4583,85.762,121.7902,1022.2,-23.1,-999.0,yes,yes,no,300234065762310,CALIB,AWI-USIABP,MOSAiC,North
2019-12-11T12:00:00Z,1576065600,2019,12,0,345.5,345.5,85.7632,121.771,1021.6,-23.2,-999.0,yes,yes,no,300234065762310,CALIB,AWI-USIABP,MOSAiC,North
2019-12-11T13:00:02Z,1576069203,2019,13,0,345.5417,345.5417,85.771,121.8196,1021.5,-23.3,-999.0,yes,yes,no,300234065762310,CALIB,AWI-USIABP,MOSAiC,North
2019-12-11T13:59:57Z,1576072797,2019,14,0,345.5833,345.5833,85.7716,121.792,1021.6,-23.3,-999.0,yes,yes,no,300234065762310,CALIB,AWI-USIABP,MOSAiC,North
2019-12-11T15:00:00Z,1576076400,2019,15,0,345.625,345.625,85.7806,121.8268,1021.5,-23.4,-999.0,yes,yes,no,300234065762310,CALIB,AWI-USIABP,MOSAiC,North
2019-12-11T16:00:02Z,1576080003,2019,16,0,345.6667,345.6667,85.7996,121.8122,1021.3,-23.7,-999.0,yes,yes,no,300234065762310,CALIB,AWI-USIABP,MOSAiC,North
2019-12-11T16:59:57Z,1576083597,2019,17,0,345.7083,345.7083,85.8232,121.861,1021.6,-24.0,-999.0,yes,yes,no,300234065762310,CALIB,AWI-USIABP,MOSAiC,North
2019-12-11T18:00:00Z,1576087200,2019,18,0,345.75,345.75,85.846,121.9236,1021.5,-24.1,-999.0,yes,yes,no,300234065762310,CALIB,AWI-USIABP,MOSAiC,North
2019-12-11T19:00:02Z,1576090803,2019,19,0,345.7917,345.7917,85.8652,121.9688,1021.4,-24.0,-999.0,yes,yes,no,300234065762310,CALIB,AWI-USIABP,MOSAiC,North
2019-12-11T19:59:57Z,1576094397,2019,20,0,345.8333,345.8333,85.8696,122.0142,1021.3,-24.0,-999.0,yes,yes,no,300234065762310,CALIB,AWI-USIABP,MOSAiC,North
2019-12-11T21:00:00Z,1576098000,2019,21,0,345.875,345.875,85.8868,122.0762,1021.2,-24.4,-999.0,yes,yes,no,300234065762310,CALIB,AWI-USIABP,MOSAiC,North
2019-12-11T22:00:02Z,1576101603,2019,22,0,345.9167,345.9167,85.8998,122.1054,1021.1,-24.1,-999.0,yes,yes,no,300234065762310,CALIB,AWI-USIABP,MOSAiC,North
2019-12-11T22:59:57Z,1576105197,2019,23,0,345.9583,345.9583,85.9294,122.1158,1020.9,-24.1,-999.0,yes,yes,no,300234065762310,CALIB,AWI-USIABP,MOSAiC,North
2019-12-12T00:00:00Z,1576108800,2019,0,0,346.0,346.0,85.9566,122.0684,1020.5,-23.7,-999.0,yes,yes,no,300234065762310,CALIB,AWI-USIABP,MOSAiC,North
2019-12-12T01:00:02Z,1576112403,2019,1,0,346.0417,346.0417,85.9924,122.0504,1019.4,-23.6,-999.0,yes,yes,no,300234065762310,CALIB,AWI-USIABP,MOSAiC,North
2019-12-12T01:59:57Z,1576115997,2019,2,0,346.0833,346.0833,86.0276,121.9746,1019.0,-23.8,-999.0,yes,yes,no,300234065762310,CALIB,AWI-USIABP,MOSAiC,North
2019-12-12T03:00:00Z,1576119600,2019,3,0,346.125,346.125,86.0798,121.8202,1019.3,-24.1,-999.0,yes,yes,no,300234065762310,CALIB,AWI-USIABP,MOSAiC,North
2019-12-12T04:00:02Z,1576123203,2019,4,0,346.1667,346.1667,86.1068,121.7422,1018.7,-24.0,-999.0,yes,yes,no,300234065762310,CALIB,AWI-USIABP,MOSAiC,North
2019-12-12T04:59:57Z,1576126797,2019,5,0,346.2083,346.2083,86.1468,121.7028,1017.8,-24.2,-999.0,yes,yes,no,300234065762310,CALIB,AWI-USIABP,MOSAiC,North
2019-12-12T06:00:00Z,1576130400,2019,6,0,346.25,346.25,86.1674,121.6694,1017.3,-24.2,-999.0,yes,yes,no,300234065762310,CALIB,AWI-USIABP,MOSAiC,North
2019-12-12T07:00:02Z,1576134003,2019,7,0,346.2917,346.2917,86.2258,121.6088,1017.3,-24.5,-999.0,yes,yes,no,300234065762310,CALIB,AWI-USIABP,MOSAiC,North
2019-12-12T07:59:57Z,1576137597,2019,8,0,346.3333,346.3333,86.2624,121.5802,1017.4,-24.4,-999.0,yes,yes,no,300234065762310,CALIB,AWI-USIABP,MOSAiC,North
2019-12-12T09:00:00Z,1576141200,2019,9,0,346.375,346.375,86.2988,121.5914,1016.9,-24.4,-999.0,yes,yes,no,300234065762310,CALIB,AWI-USIABP,MOSAiC,North
2019-12-12T10:00:02Z,1576144803,2019,10,0,346.4167,346.4167,86.3288,121.553,1016.3,-24.0,-999.0,yes,yes,no,300234065762310,CALIB,AWI-USIABP,MOSAiC,North
2019-12-12T10:59:57Z,1576148397,2019,11,0,346.4583,346.4583,86.3556,121.449,1016.2,-23.7,-999.0,yes,yes,no,300234065762310,CALIB,AWI-USIABP,MOSAiC,North
2019-12-12T12:00:00Z,1576152000,2019,12,0,346.5,346.5,86.3958,121.2964,1015.6,-24.4,-999.0,yes,yes,no,300234065762310,CALIB,AWI-USIABP,MOSAiC,North
2019-12-12T13:00:02Z,1576155603,2019,13,0,346.5417,346.5417,86.4314,121.2012,1015.0,-24.0,-999.0,yes,yes,no,300234065762310,CALIB,AWI-USIABP,MOSAiC,North
2019-12-12T13:59:57Z,1576159197,2019,14,0,346.5833,346.5833,86.4508,121.4472,1014.6,-25.3,-999.0,yes,yes,no,300234065762310,CALIB,AWI-USIABP,MOSAiC,North
2019-12-12T15:00:00Z,1576162800,2019,15,0,346.625,346.625,86.4634,121.665,1015.0,-24.8,-999.0,yes,yes,no,300234065762310,CALIB,AWI-USIABP,MOSAiC,North
2019-12-12T16:00:02Z,1576166403,2019,16,0,346.6667,346.6667,86.5172,122.4824,1014.6,-24.7,-999.0,yes,yes,no,300234065762310,CALIB,AWI-USIABP,MOSAiC,North
2019-12-12T16:59:57Z,1576169997,2019,17,0,346.7083,346.7083,86.5448,122.5664,1014.6,-24.6,-999.0,yes,yes,no,300234065762310,CALIB,AWI-USIABP,MOSAiC,North
2019-12-12T18:00:00Z,1576173600,2019,18,0,346.75,346.75,86.5622,122.4118,1014.4,-24.4,-999.0,yes,yes,no,300234065762310,CALIB,AWI-USIABP,MOSAiC,North
2019-12-12T19:00:02Z,1576177203,2019,19,0,346.7917,346.7917,86.5878,122.1992,1013.9,-24.5,-999.0,yes,yes,no,300234065762310,CALIB,AWI-USIABP,MOSAiC,North
2019-12-12T19:59:57Z,1576180797,2019,20,0,346.8333,346.8333,86.6006,122.1024,1014.2,-23.8,-999.0,yes,yes,no,300234065762310,CALIB,AWI-USIABP,MOSAiC,North